EW1033 Weather Reports


Display with metric or nautical units.
time (UTC)temp
F
wind
direction
speed
MPH
gust
MPH
rain 1hr
in
rain 24hr
in
rain mn
in
humidity
%
barometer
mb
20200406093117 52 280 0.0 0.0 0.00 0.00 0.00 53 1014.1
20200406091819 53 280 0.0 0.0 0.00 0.00 0.00 51 1014.0
20200406090103 53 279 0.0 0.0 0.00 0.00 0.00 50 1014.1
20200406084601 55 279 0.0 0.0 0.00 0.00 0.00 48 1014.2
20200406083148 55 279 0.0 0.0 0.00 0.00 0.00 48 1014.1
20200406081635 56 279 0.0 0.0 0.00 0.00 0.00 47 1014.1
20200406080248 58 279 0.0 0.0 0.00 0.00 0.00 43 1014.0
20200406074628 59 279 0.0 0.0 0.00 0.00 0.00 39 1014.1
20200406073121 60 279 0.0 0.0 0.00 0.00 0.00 39 1014.3
20200406071615 60 279 0.0 0.0 0.00 0.00 0.00 38 1014.3
20200406070117 60 279 0.0 0.0 0.00 0.00 0.00 39 1014.3
20200406064550 61 279 0.0 0.0 0.00 0.00 0.00 38 1014.2
20200406063119 62 279 0.0 0.0 0.00 0.00 0.00 36 1014.2
20200406061553 63 279 0.0 0.0 0.00 0.00 0.00 37 1014.0
20200406060043 63 279 0.0 0.0 0.00 0.00 0.00 38 1013.8
20200406054544 65 279 0.0 0.0 0.00 0.00 0.00 37 1013.7
20200406053041 67 279 0.0 0.0 0.00 0.00 0.00 34 1013.5
20200406051604 68 279 0.0 4.0 0.00 0.00 0.00 32 1013.5
20200406050045 69 283 2.0 8.0 0.00 0.00 0.00 30 1013.4
20200406044552 69 273 0.0 6.0 0.00 0.00 0.00 27 1013.2
20200406043049 69 263 1.0 8.0 0.00 0.00 0.00 26 1013.2
20200406041549 69 263 2.0 7.0 0.00 0.00 0.00 24 1013.0
20200406040030 70 257 0.0 0.0 0.00 0.00 0.00 23 1012.5
20200406034628 71 257 0.0 2.0 0.00 0.00 0.00 22 1012.3
20200406033055 72 257 3.0 8.0 0.00 0.00 0.00 21 1012.0
20200406031534 72 269 0.0 6.0 0.00 0.00 0.00 20 1011.7
20200406030055 73 249 0.0 3.0 0.00 0.00 0.00 18 1011.3
20200406024540 74 238 0.0 5.0 0.00 0.00 0.00 17 1011.2
20200406023057 75 239 1.0 8.0 0.00 0.00 0.00 16 1011.0
20200406021632 76 240 3.0 11.0 0.00 0.00 0.00 15 1010.7
20200406020035 76 234 0.0 10.0 0.00 0.00 0.00 15 1010.7
20200406014543 77 221 2.0 16.0 0.00 0.00 0.00 14 1010.4
20200406013038 77 210 3.0 11.0 0.00 0.00 0.00 14 1010.4
20200406011625 78 254 2.0 12.0 0.00 0.00 0.00 13 1010.3
20200406010043 79 194 6.0 15.0 0.00 0.00 0.00 13 1010.3
20200406004530 79 240 0.0 14.0 0.00 0.00 0.00 14 1010.2
20200406003019 80 234 3.0 13.0 0.00 0.00 0.00 12 1010.0
20200406000026 81 177 2.0 21.0 0.00 0.00 0.00 12 1009.9
20200405234546 82 284 6.0 12.0 0.00 0.00 0.00 11 1009.8
20200405233018 82 247 7.0 16.0 0.00 0.00 0.00 10 1009.9
20200405231528 83 237 8.0 20.0 0.00 0.00 0.00 11 1009.9
20200405230035 83 263 7.0 20.0 0.00 0.00 0.00 10 1010.0
20200405224513 83 196 6.0 13.0 0.00 0.00 0.00 10 1010.0
20200405223012 84 227 9.0 16.0 0.00 0.00 0.00 10 1010.0
20200405221508 84 237 6.0 13.0 0.00 0.00 0.00 10 1010.3
20200405220009 83 286 5.0 20.0 0.00 0.00 0.00 11 1010.3
20200405214525 83 205 1.0 11.0 0.00 0.00 0.00 12 1010.6
20200405213004 82 264 5.0 12.0 0.00 0.00 0.00 11 1010.8
20200405211714 82 197 3.0 11.0 0.00 0.00 0.00 11 1011.2
20200405210339 82 292 0.0 11.0 0.00 0.00 0.00 10 1011.4
20200405204625 82 173 2.0 15.0 0.00 0.00 0.00 12 1011.5
20200405203307 81 223 4.0 17.0 0.00 0.00 0.00 11 1011.9
20200405201719 81 294 0.0 9.0 0.00 0.00 0.00 11 1012.1
20200405200321 81 355 0.0 14.0 0.00 0.00 0.00 13 1012.3
20200405194556 79 329 0.0 6.0 0.00 0.00 0.00 13 1012.7
20200405193110 80 209 0.0 9.0 0.00 0.00 0.00 13 1012.9
20200405191629 78 206 0.0 8.0 0.00 0.00 0.00 13 1013.1
20200405190055 78 157 1.0 5.0 0.00 0.00 0.00 13 1013.3
20200405184546 77 232 4.0 11.0 0.00 0.00 0.00 13 1013.7
20200405183209 76 226 4.0 13.0 0.00 0.00 0.00 13 1014.0
20200405181558 76 232 3.0 9.0 0.00 0.00 0.00 15 1014.2
20200405180136 75 273 0.0 8.0 0.00 0.00 0.00 15 1014.2
20200405174600 76 192 2.0 10.0 0.00 0.00 0.00 13 1014.2
20200405173134 75 129 0.0 3.0 0.00 0.00 0.00 19 1014.1
20200405171530 74 209 2.0 9.0 0.00 0.00 0.00 17 1014.3
20200405170024 74 193 4.0 10.0 0.00 0.00 0.00 22 1014.1
20200405164604 73 178 2.0 11.0 0.00 0.00 0.00 23 1014.2
20200405163042 72 139 3.0 10.0 0.00 0.00 0.00 23 1014.2
20200405161513 71 151 5.0 13.0 0.00 0.00 0.00 22 1014.3
20200405160009 70 149 2.0 9.0 0.00 0.00 0.00 22 1014.3
20200405154505 69 122 0.0 3.0 0.00 0.00 0.00 24 1014.3
20200405153002 67 332 0.0 0.0 0.00 0.00 0.00 29 1014.4
20200405151655 65 333 0.0 1.0 0.00 0.00 0.00 31 1014.4
20200405150201 64 232 0.0 0.0 0.00 0.00 0.00 33 1014.3
20200405144557 62 134 0.0 0.0 0.00 0.00 0.00 33 1014.2
20200405143052 59 134 0.0 0.0 0.00 0.00 0.00 38 1014.2
20200405141609 57 134 0.0 0.0 0.00 0.00 0.00 40 1014.3
20200405140039 53 135 0.0 5.0 0.00 0.00 0.00 45 1014.3
20200405134601 50 72 0.0 0.0 0.00 0.00 0.00 49 1014.0
20200405133044 48 72 0.0 0.0 0.00 0.00 0.00 52 1013.7
20200405131537 47 73 0.0 0.0 0.00 0.00 0.00 53 1013.7
20200405130038 48 59 0.0 0.0 0.00 0.00 0.00 51 1013.6
20200405124541 48 59 0.0 0.0 0.00 0.00 0.00 51 1013.5
20200405123040 47 59 0.0 0.0 0.00 0.00 0.00 53 1013.5
20200405121528 46 59 0.0 0.0 0.00 0.00 0.00 55 1013.5
20200405120044 46 59 0.0 0.0 0.00 0.00 0.00 56 1013.6
20200405114546 45 59 0.0 0.0 0.00 0.00 0.00 59 1013.4
20200405113031 49 59 0.0 0.0 0.00 0.00 0.00 51 1013.3
20200405111519 47 79 0.0 0.0 0.00 0.00 0.00 53 1013.3
20200405110024 47 95 0.0 0.0 0.00 0.00 0.00 55 1013.4
20200405104519 47 95 0.0 0.0 0.00 0.00 0.00 56 1013.5
20200405103018 48 95 0.0 0.0 0.00 0.00 0.00 54 1013.4
20200405101517 49 95 0.0 0.0 0.00 0.00 0.00 52 1013.3
20200405100010 49 95 0.0 0.0 0.00 0.00 0.00 51 1013.3
20200405094530 50 95 0.0 0.0 0.00 0.00 0.00 50 1013.4